Location: Macksville High School
(37.9611°N, 99.9654°W)
Time: 14:13:00
(UTC+00:00)

Cosmos 468 Rocket - Pass Details

Date: 27 February 2020
Orbit: 744 x 780 km, 74.0° (Epoch: 04 April)

Event Time Altitude Azimuth Distance (km) Brightness Sun altitude
Rises 12:25:17 0° 333° (NNW) 3,261 7.0 -10.6°
Reaches altitude 10° 12:27:49 10° 326° (NW) 2,325 6.1 -10.1°
Maximum altitude 12:32:40 38° 259° (W) 1,153 4.5 -9.1°
Drops below altitude 10° 12:37:28 10° 192° (SSW) 2,291 6.4 -8.2°
Sets 12:39:56 0° 184° (S) 3,206 7.2 -7.7°
